3,000 Hits




Click to Select an Era


Hit Date Game Month DOW City Day/Night Type Field Pos Bat Pos Opponent Inning Out OnBase RBI Pitcher
1 07/19/82   7 Mon SD N 2B CF 5 PHI 8 0 0 0 Sid Monge
2 07/19/82   7 Mon SD N 1B CF 5 PHI 9 2 0 0 Ron Reed
3 07/21/82   7 Wed SD N 1B CF 5 PHI 4 1 1 0 Dick Ruthven
4 07/23/82   7 Fri SD N 1B LF 2 NYM 6 1 2 1 Ed Lynch
5 07/23/82   7 Fri SD N 1B LF 2 NYM 8 0 0 0 Mike Scott
6 07/24/82   7 Sat SD N 2B LF 2 NYM 1 1 0 0 Craig Swan
7 07/24/82   7 Sat SD N 1B LF 2 NYM 5 2 1 0 Craig Swan
8 07/25/82   7 Sun SD D 1B LF 2 NYM 9 0 0 0 Charlie Puleo
9 07/25/82   7 Sun SD D 1B LF 2 NYM 10 1 3 1 Neil Allen
10 07/27/82 1 7 Tue ATL N 1B LF 2 ATL 6 0 0 0 Bob Walk
11 07/27/82 2 7 Tue ATL N 1B LF 2 ATL 1 0 1 1 Ken Dayley
12 07/27/82 2 7 Tue ATL N 1B LF 2 ATL 3 0 0 0 Ken Dayley
13 07/27/82 2 7 Tue ATL N 1B LF 2 ATL 7 0 0 0 Pascual Perez
14 07/27/82 2 7 Tue ATL N 1B LF 2 ATL 9 2 1 0 Steve Bedrosian
15 07/28/82   7 Wed ATL N 1B CF 2 ATL 8 0 1 0 Al Hrabosky
16 07/29/82   7 Thu ATL N 1B CF 3 ATL 1 2 0 0 Rick Camp
17 07/30/82   7 Fri CIN N 1B CF 2 CIN 6 0 0 0 Bruce Berenyi
18 07/31/82 1 7 Sat CIN N 1B CF 2 CIN 1 0 1 0 Tom Seaver
19 07/31/82 2 7 Sat CIN N 1B CF 2 CIN 1 1 0 0 Bob Shirley
20 08/01/82   8 Sun CIN D 1B CF 2 CIN 1 0 1 0 Charlie Leibrandt
21 08/01/82   8 Sun CIN D 1B CF 2 CIN 3 0 0 0 Charlie Leibrandt
22 08/02/82   8 Mon HOU N 3B CF 2 HOU 6 2 1 1 Joe Niekro
23 08/03/82   8 Tue HOU N 1B LF 2 HOU 1 1 0 0 Bob Knepper
24 08/04/82   8 Wed HOU D 1B CF 3 HOU 8 0 0 0 Mike LaCoss
25 08/08/82   8 Sun SD D 1B CF 2 CIN 1 0 1 0 Frank Pastore
26 08/09/82   8 Mon SD N 2B CF 2 HOU 3 1 1 1 Don Sutton
27 08/10/82   8 Tue SD N 1B CF 2 HOU 4 1 0 0 Vern Ruhle
28 08/12/82   8 Thu SD D 2B CF 1 ATL 5 2 1 1 Bob Walk
29 08/12/82   8 Thu SD D 2B CF 1 ATL 6 2 1 1 Carlos Diaz
30 08/13/82   8 Fri SD N 1B CF 1 ATL 7 0 3 1 Al Hrabosky
31 08/14/82   8 Sat SD N 1B CF 1 ATL 1 0 0 0 Pascual Perez
32 08/18/82   8 Wed STL N 1B CF 1 STL 6 0 0 0 Bob Forsch
33 08/18/82   8 Wed STL N 1B CF 1 STL 8 1 0 0 Bob Forsch
34 08/19/82   8 Thu STL N 1B CF 2 STL 8 1 0 0 John Stuper
35 08/20/82   8 Fri CHI D 1B CF 2 CHI 1 1 0 0 Randy Martz
36 08/21/82   8 Sat CHI D 2B LF 2 CHI 6 2 1 1 Allen Ripley
37 08/22/82   8 Sun CHI D 3B LF 2 CHI 3 1 0 0 Dickie Noles
38 08/22/82   8 Sun CHI D HR LF 2 CHI 6 1 0 1 Bill Campbell
39 08/23/82 1 8 Mon PIT N 1B LF 2 PIT 1 0 1 0 John Candelaria
40 09/16/82   9 Thu SF N 2B RF 2 SF 4 0 1 0 Fred Breining
41 09/16/82   9 Thu SF N 1B RF 2 SF 9 0 0 0 Greg Minton
42 09/17/82   9 Fri SF N 2B RF 2 SF 3 0 1 1 Bill Laskey
43 09/17/82   9 Fri SF N 2B RF 2 SF 5 1 0 0 Mike Chris
44 09/18/82   9 Sat SF D 1B RF 2 SF 4 1 0 0 Rich Gale
45 09/18/82   9 Sat SF D 1B RF 2 SF 7 0 0 0 Rich Gale
46 09/19/82   9 Sun SF D 1B RF 2 SF 1 1 0 0 Atlee Hammaker
47 09/19/82   9 Sun SF D 1B RF 2 SF 3 0 0 0 Atlee Hammaker
48 09/24/82   9 Fri ATL N 1B LF 7 ATL 2 1 0 0 Pascual Perez
49 09/24/82   9 Fri ATL N 1B LF 7 ATL 3 2 1 0 Ricky Mahler
50 09/25/82   9 Sat ATL N 2B RF 3 ATL 3 0 1 0 Tommy Boggs
51 09/29/82   9 Wed SD N 1B RF 3 CIN 8 1 1 1 Bruce Berenyi
52 09/30/82   9 Thu SD D 2B PH 9 CIN 9 1 0 0 Ben Hayes
53 10/01/82   10 Fri SD N 1B RF 6 ATL 7 2 0 0 Phil Niekro
54 10/02/82   10 Sat SD N 2B RF 5 ATL 6 0 0 0 Pascual Perez
55 10/03/82   10 Sun SD D 1B RF 6 ATL 5 0 0 0 Rick Camp
56 06/21/83   6 Tue LA N 1B LF 7 LA 5 0 0 0 Alejandro Pena
57 06/22/83   6 Wed LA N 1B LF 7 LA 2 2 0 0 Bob Welch
58 06/22/83   6 Wed LA N 2B LF 7 LA 6 2 1 1 Bob Welch
59 06/22/83   6 Wed LA N 1B LF 7 LA 8 1 2 1 Dave Stewart
60 06/25/83   6 Sat SF D 1B LF 7 SF 8 2 1 1 Gary Lavelle
61 06/26/83 2 6 Sun SF D 1B LF 6 SF 7 2 1 0 Gary Lavelle
62 06/28/83   6 Tue SD N 1B LF 7 LA 6 2 2 1 Bob Welch
63 06/28/83   6 Tue SD N 1B RF 7 LA 8 1 0 0 Tom Niedenfuer
64 06/30/83   6 Thu SD D 1B LF 7 LA 2 0 0 0 Burt Hooton
65 07/01/83   7 Fri SD N 2B LF 6 SF 7 0 0 0 Bill Laskey
66 07/04/83   7 Mon SD N 2B LF 6 SF 2 0 0 0 Mike Krukow
67 07/08/83   7 Fri SD N 1B LF 7 STL 2 0 1 0 Neil Allen
68 07/08/83   7 Fri SD N 1B LF 7 STL 6 2 0 0 Neil Allen
69 07/09/83   7 Sat SD N 2B LF 7 STL 7 0 0 0 Dave LaPoint
70 07/13/83   7 Wed SD   1B LF 7 CHI 2 2 0 0 Chuck Rainey
71 07/13/83   7 Wed SD   1B LF 7 CHI 6 1 1 1 Craig Lefferts
72 07/14/83   7 Thu SD D 1B LF 8 PIT 5 0 0 0 Larry McWilliams
73 07/26/83 2 7 Tue PIT N 1B PH 9 PIT 6 0 0 0 Lee Tunnell
74 07/29/83 1 7 Fri SD   1B LF 1 ATL 1 0 0 0 Pascual Perez
75 07/30/83   7 Sat SD   1B LF 2 ATL 3 1 1 0 Phil Niekro
76 07/31/83   7 Sun SD   1B RF 6 ATL 2 0 0 0 Craig McMurtry
77 07/31/83   7 Sun SD   1B RF 6 ATL 5 2 3 2 Donnie Moore
78 08/01/83   8 Mon SD N 2B CF 7 HOU 4 1 2 2 Bob Knepper
79 08/01/83   8 Mon SD N 1B CF 7 HOU 6 2 1 0 Bob Knepper
80 08/02/83   8 Tue SD N 1B CF 7 HOU 7 2 0 0 Mike Madden
81 08/02/83   8 Tue SD N 1B CF 7 HOU 9 2 2 1 Dave Smith
82 08/04/83   8 Thu SD D 1B RF 6 HOU 5 0 0 0 Joe Niekro
83 08/04/83   8 Thu SD D 1B RF 6 HOU 6 1 1 0 Joe Niekro
84 08/06/83 1 8 Sat SD   1B RF 6 CIN 4 2 0 0 Charlie Puleo
85 08/06/83 1 8 Sat SD   1B RF 6 CIN 6 1 0 0 Charlie Puleo
86 08/06/83 1 8 Sat SD   1B RF 6 CIN 8 0 1 0 Bill Scherrer
87 08/06/83 1 8 Sat SD   2B RF 6 CIN 8 2 2 1 Tom Hume
88 08/06/83 2 8 Sat SD N 3B CF 5 CIN 4 0 0 0 Ted Power
89 08/06/83 2 8 Sat SD N 1B CF 5 CIN 7 1 2 1 Ben Hayes
90 08/09/83   8 Tue HOU N 1B RF 3 HOU 6 2 1 1 Joe Niekro
91 08/11/83   8 Thu HOU N 1B RF 5 HOU 3 2 2 1 Mike Scott
92 08/12/83   8 Fri CIN   1B RF 5 CIN 4 0 0 0 Frank Pastore
93 08/13/83   8 Sat CIN N 1B RF 3 CIN 1 1 1 0 Jeff Russell
94 08/13/83   8 Sat CIN N 1B RF 3 CIN 9 0 0 0 Jeff Russell
95 08/14/83   8 Sun CIN   1B RF 5 CIN 7 1 0 0 Ben Hayes
96 08/14/83   8 Sun CIN   1B RF 5 CIN 10 1 1 0 Rich Gale
97 08/15/83   8 Mon ATL   1B RF 5 ATL 1 2 1 1 Craig McMurtry
98 08/15/83   8 Mon ATL   1B RF 5 ATL 5 1 3 1 Craig McMurtry
99 08/16/83   8 Tue ATL   1B RF 5 ATL 2 0 0 0 Pascual Perez
100 08/16/83   8 Tue ATL   1B RF 5 ATL 4 1 0 0 Pascual Perez
101 08/16/83   8 Tue ATL   1B RF 5 ATL 9 0 0 0 Steve Bedrosian
102 08/17/83   8 Wed SD N 3B RF 5 PHI 6 2 0 0 Charles Hudson
103 08/18/83   8 Thu SD D 2B RF 5 PHI 8 1 0 0 John Denny
104 08/21/83 1 8 Sun SD D 1B RF 5 MTL 7 1 0 0 Charlie Lea
105 08/21/83 2 8 Sun SD D 1B RF 3 MTL 1 2 0 0 Bill Gullickson
106 08/21/83 2 8 Sun SD D 1B RF 3 MTL 6 0 0 0 Bill Gullickson
107 08/22/83   8 Mon SD N 2B RF 5 NYM 6 0 0 0 Craig Swan
108 08/23/83   8 Tue SD N 1B RF 5 NYM 5 0 0 0 Walt Terrell
109 08/23/83   8 Tue SD N 1B RF 5 NYM 9 1 2 1 Walt Terrell
110 08/24/83   8 Wed SD   1B RF 3 NYM 5 2 1 1 Tom Seaver
111 08/26/83   8 Fri MTL   1B RF 3 MTL 6 2 0 0 Bill Gullickson
112 08/27/83   8 Sat MTL   1B RF 3 MTL 5 1 0 0 Charlie Lea
113 08/28/83   8 Sun MTL   1B RF 3 MTL 7 1 0 0 Steve Rogers
114 08/29/83 2 8 Mon PHI N 1B RF 5 PHI 3 2 1 0 Steve Comer
115 08/30/83 1 8 Tue PHI N 1B RF 5 PHI 2 0 0 0 Kevin Gross
116 08/31/83   8 Wed PHI N 1B RF 3 PHI 1 2 0 0 Charles Hudson
117 09/02/83   9 Fri NYM   1B RF 3 NYM 1 1 1 0 Walt Terrell
118 09/02/83   9 Fri NYM   2B RF 3 NYM 6 0 0 0 Walt Terrell
119 09/03/83   9 Sat NYM   1B RF 3 NYM 1 1 1 0 Tom Seaver
120 09/04/83   9 Sun NYM   1B RF 3 NYM 5 2 1 1 Ed Lynch
121 09/04/83   9 Sun NYM   2B RF 3 NYM 8 0 0 0 Scott Holman
122 09/05/83   9 Mon LA N 1B RF 7 LA 6 0 0 0 Fernando Valenz
123 09/06/83   9 Tue LA N 2B RF 7 LA 6 1 0 0 Burt Hooton
124 09/07/83   9 Wed SD N 1B RF 3 HOU 6 1 2 1 Nolan Ryan
125 09/08/83   9 Thu SD D 1B RF 3 HOU 4 1 0 0 Mike Scott
126 09/09/83   9 Fri SD N 1B RF 3 CIN 5 1 3 2 Charlie Puleo
127 09/11/83   9 Sun SD D 1B RF 3 CIN 1 2 0 0 Jeff Russell
128 09/11/83   9 Sun SD D 2B RF 3 CIN 8 2 2 1 Bill Scherrer
129 09/13/83   9 Tue SD N 1B RF 3 SF 1 2 0 0 Scott Garrelts
130 09/13/83   9 Tue SD N 1B RF 3 SF 7 2 0 0 Scott Garrelts
131 09/14/83   9 Wed SD N 1B RF 3 SF 1 2 0 0 Mike Krukow
132 09/14/83   9 Wed SD N 1B RF 3 SF 5 1 2 1 Mike Krukow
133 09/14/83   9 Wed SD N 1B RF 3 SF 7 1 1 1 Andy McGaffigan
134 09/16/83   9 Fri ATL   1B RF 3 ATL 4 0 0 0 Craig McMurtry
135 09/17/83   9 Sat ATL   1B RF 3 ATL 1 2 0 0 Len Barker
136 09/18/83   9 Sun ATL   1B RF 3 ATL 4 1 0 0 Pascual Perez
137 09/18/83   9 Sun ATL   1B RF 3 ATL 6 2 2 1 Pascual Perez
138 09/18/83   9 Sun ATL   1B RF 3 ATL 13 1 0 0 Ken Dayley
139 09/20/83   9 Tue SF N 1B LF 3 SF 8 2 1 0 Andy McGaffigan
140 09/21/83   9 Wed SF D 1B RF 3 SF 6 2 1 1 Mark Davis
141 09/23/83   9 Fri CIN N HR RF 3 CIN 5 2 2 3 Mario Soto
142 09/23/83   9 Fri CIN N 1B RF 3 CIN 7 0 2 0 Ted Power
143 09/24/83   9 Sat CIN   1B RF 3 CIN 5 0 0 0 Bruce Berenyi
144 09/25/83   9 Sun CIN   1B RF 3 CIN 6 0 1 0 Charlie Puleo
145 09/25/83   9 Sun CIN   1B RF 3 CIN 8 0 0 0 Bill Scherrer
146 09/26/83   9 Mon HOU N 1B RF 3 HOU 5 2 0 0 Mike Madden
147 09/29/83 1 9 Thu SD N 1B RF 3 LA 8 2 1 1 Joe Beckwith
148 09/29/83 2 9 Thu SD N 1B RF 3 LA 1 2 0 0 Alejandro Pena
149 09/30/83   9 Fri SD   1B RF 3 ATL 6 2 0 0 Phil Niekro
150 04/03/84   4 Tue SD N 2B RF 2 PIT 1 0 1 1 Rick Rhoden
151 04/05/84   4 Thu SD D 1B RF 2 PIT 6 0 0 0 Lee Tunnell
152 04/06/84   4 Fri SD N 1B RF 2 CHI 5 1 0 0 Scott Sanderson
153 04/07/84   4 Sat SD N 1B RF 3 CHI 7 0 0 0 Porfi Altamiran
154 04/08/84   4 Sun SD D 1B RF 2 CHI 3 2 0 0 Dick Ruthven
155 04/08/84   4 Sun SD D 3B RF 2 CHI 7 1 2 2 Tim Stoddard
156 04/11/84   4 Wed SD N 2B RF 2 STL 2 2 0 0 Joaquin Andujar
157 04/11/84   4 Wed SD N 1B RF 2 STL 4 2 1 1 Joaquin Andujar
158 04/12/84   4 Thu SD N 1B RF 3 ATL 3 2 0 0 Pete Falcone
159 04/12/84   4 Thu SD N 1B RF 3 ATL 6 0 1 0 Pete Falcone
160 04/12/84   4 Thu SD N 1B RF 3 ATL 8 0 0 0 Pete Falcone
161 04/13/84   4 Fri SD N 3B RF 2 ATL 4 1 0 0 Len Barker
162 04/13/84   4 Fri SD N 1B RF 2 ATL 7 0 0 0 Len Barker
163 04/14/84   4 Sat SD N 1B RF 2 ATL 1 1 0 0 Rick Camp
164 04/14/84   4 Sat SD N 1B RF 2 ATL 6 1 1 1 Rick Camp
165 04/15/84   4 Sun SD D 1B RF 2 ATL 1 1 0 0 Craig McMurtry
166 04/15/84   4 Sun SD D 1B RF 2 ATL 2 2 1 1 Craig McMurtry
167 04/19/84   4 Thu LA N 1B RF 2 LA 7 0 0 0 Alejandro Pena
168 04/19/84   4 Thu LA N 1B RF 2 LA 9 1 0 0 Alejandro Pena
169 04/20/84   4 Fri LA N 1B RF 3 LA 1 2 0 0 Fernando Valenz
170 04/20/84   4 Fri LA N 1B RF 3 LA 4 1 0 0 Fernando Valenz
171 04/21/84   4 Sat LA D 2B RF 3 LA 3 1 0 0 Jerry Reuss
172 04/21/84   4 Sat LA D 1B RF 3 LA 6 1 1 0 Pat Zachry
173 04/21/84   4 Sat LA D 1B RF 3 LA 8 0 0 0 Orel Hershiser
174 04/22/84   4 Sun LA D 1B RF 3 LA 3 1 0 0 Rick Honeycutt
175 04/23/84   4 Mon SD N 1B RF 2 SF 3 0 1 0 Jeff Robinson
176 04/23/84   4 Mon SD N 1B RF 2 SF 5 2 0 0 Frank Williams
177 04/24/84   4 Tue SD N 2B RF 2 SF 1 0 1 0 Mike Krukow
178 04/24/84   4 Tue SD N 1B RF 2 SF 2 1 0 0 Mike Krukow
179 04/24/84   4 Tue SD N 1B RF 2 SF 7 1 0 0 Mike Krukow
180 04/25/84   4 Wed SD N HR RF 2 SF 3 2 0 1 Bill Laskey
181 04/25/84   4 Wed SD N 1B RF 2 SF 6 1 0 0 Bill Laskey
182 04/26/84   4 Thu SD D 1B RF 2 LA 3 2 0 0 Burt Hooton
183 04/26/84   4 Thu SD D 1B RF 2 LA 6 2 2 1 Orel Hershiser
184 04/28/84   4 Sat SD N 1B RF 2 LA 5 1 1 0 Bob Welch
185 04/29/84   4 Sun SD D 2B RF 2 LA 4 0 0 0 Alejandro Pena
186 05/03/84   5 Thu ATL N 1B RF 3 ATL 9 0 0 0 Terry Forster
187 05/04/84   5 Fri CHI D 1B RF 2 CHI 3 2 0 0 Scott Sanderson
188 05/04/84   5 Fri CHI D 1B RF 2 CHI 7 1 1 1 Scott Sanderson
189 05/05/84   5 Sat CHI D 1B RF 2 CHI 9 0 2 1 Lee Smith
190 05/10/84   5 Thu STL N 1B RF 3 STL 4 0 0 0 Joaquin Andujar
191 05/10/84   5 Thu STL N 1B RF 3 STL 9 1 0 0 Joaquin Andujar
192 05/12/84   5 Sat SD N 1B RF 1 PHI 3 1 1 0 Marty Bystrom
193 05/13/84   5 Sun SD D 1B RF 1 PHI 6 0 0 0 John Denny
194 05/13/84   5 Sun SD D 1B RF 1 PHI 8 1 0 0 Tug McGraw
195 05/15/84   5 Tue SD N 1B RF 1 MTL 2 2 1 0 Bryn Smith
196 05/15/84   5 Tue SD N 1B RF 1 MTL 4 0 0 0 Bryn Smith
197 05/16/84   5 Wed SD N 1B RF 2 MTL 5 2 1 1 Charlie Lea
198 05/16/84   5 Wed SD N 1B RF 2 MTL 8 0 0 0 Charlie Lea
199 05/17/84   5 Thu SD D 1B RF 2 MTL 8 2 1 1 Gary Lucas
200 05/18/84   5 Fri SD N 3B RF 2 NYM 4 0 0 0 Dwight Gooden
201 05/19/84   5 Sat SD N HR RF 2 NYM 6 1 2 3 Ed Lynch
202 05/19/84   5 Sat SD N 1B RF 2 NYM 7 2 2 1 Tom Gorman
203 05/20/84   5 Sun SD D 1B RF 2 NYM 5 1 3 1 Mike Torrez
204 05/20/84   5 Sun SD D 1B RF 2 NYM 7 2 1 0 Brent Gaff
205 05/25/84   5 Fri PHI N 3B RF 2 PHI 1 0 1 1 Charles Hudson
206 05/25/84   5 Fri PHI N 1B RF 2 PHI 3 0 0 0 Charles Hudson
207 05/25/84   5 Fri PHI N 1B RF 2 PHI 4 1 0 0 Tug McGraw
208 05/28/84   5 Mon NYM D 3B RF 2 NYM 6 0 0 0 Ron Darling
209 06/01/84   6 Fri SF N 2B RF 2 SF 1 0 1 1 Mike Krukow
210 06/01/84   6 Fri SF N 1B RF 2 SF 3 1 0 0 Frank Williams
211 06/01/84   6 Fri SF N 1B RF 2 SF 4 2 1 1 Frank Williams
212 06/02/84   6 Sat SF D 1B RF 2 SF 1 0 1 0 Jeff Robinson
213 06/02/84   6 Sat SF D 1B RF 2 SF 3 2 1 1 Jeff Robinson
214 06/02/84   6 Sat SF D 1B RF 2 SF 5 0 2 0 Jeff Robinson
215 06/03/84 1 6 Sun SF D 1B RF 3 SF 4 1 0 0 Bill Laskey
216 06/03/84 1 6 Sun SF D 1B RF 3 SF 6 1 1 0 Bill Laskey
217 06/03/84 1 6 Sun SF D 1B RF 3 SF 7 2 2 1 Jeff Cornell
218 06/03/84 2 6 Sun SF D 1B RF 3 SF 9 2 3 2 Gary Lavelle
219 06/04/84   6 Mon SD N 1B RF 3 HOU 1 2 0 0 Mike Scott
220 06/05/84   6 Tue SD N 1B RF 3 HOU 5 1 0 0 Mike LaCoss
221 06/08/84   6 Fri SD N 1B RF 2 CIN 1 1 0 0 Joe Price
222 06/08/84   6 Fri SD N 1B RF 2 CIN 7 0 1 0 John Franco
223 06/09/84   6 Sat SD N 2B RF 2 CIN 5 0 1 1 Jeff Russell
224 06/09/84   6 Sat SD N 1B RF 2 CIN 6 1 2 1 John Franco
225 06/10/84   6 Sun SD D 2B RF 2 CIN 1 1 0 0 Tom Hume
226 06/10/84   6 Sun SD D HR RF 2 CIN 5 0 0 1 Tom Hume
227 06/11/84   6 Mon SD N 2B RF 2 ATL 1 0 1 0 Pete Falcone
228 06/11/84   6 Mon SD N 1B RF 2 ATL 3 0 0 0 Pete Falcone
229 06/12/84   6 Tue SD N 3B RF 2 ATL 1 0 1 1 Pascual Perez
230 06/12/84   6 Tue SD N 1B RF 2 ATL 5 1 0 0 Pascual Perez
231 06/14/84   6 Thu SD D 1B RF 2 SF 8 0 0 0 Mark Davis
232 06/15/84   6 Fri SD N 3B RF 2 SF 1 1 0 0 Jeff Robinson
233 06/15/84   6 Fri SD N 2B RF 2 SF 3 0 0 0 Jeff Robinson
234 06/16/84   6 Sat SD N 1B RF 2 SF 3 2 1 1 Bill Laskey
235 06/16/84   6 Sat SD N 1B RF 2 SF 5 1 0 0 Bill Laskey
236 06/16/84   6 Sat SD N 2B RF 2 SF 8 1 0 0 Bill Laskey
237 06/17/84   6 Sun SD D 1B RF 2 SF 1 1 0 0 Mike Krukow
238 06/17/84   6 Sun SD D 1B RF 2 SF 7 0 0 0 Gary Lavelle
239 06/19/84   6 Tue HOU N 1B RF 2 HOU 1 1 0 0 Bob Knepper
240 06/19/84   6 Tue HOU N 1B RF 2 HOU 5 1 1 0 Bob Knepper
241 06/19/84   6 Tue HOU N 1B RF 2 HOU 8 0 0 0 Vern Ruhle
242 06/20/84   6 Wed HOU N 3B RF 2 HOU 6 1 1 1 Bill Dawley
243 06/21/84   6 Thu HOU N 1B RF 2 HOU 5 1 0 0 Joe Niekro
244 06/21/84   6 Thu HOU N 1B RF 2 HOU 9 0 0 0 Mike LaCoss
245 06/23/84   6 Sat CIN N 1B RF 2 CIN 7 0 1 0 Bob Owchinko
246 06/24/84   6 Sun CIN D 1B RF 2 CIN 6 1 0 0 Joe Price
247 06/25/84   6 Mon LA N 1B RF 2 LA 9 2 1 0 Ken Howell
248 06/26/84   6 Tue LA N 1B RF 2 LA 3 1 0 0 Bob Welch
249 06/26/84   6 Tue LA N 1B RF 2 LA 8 1 0 0 Carlos Diaz
250 06/28/84   6 Thu SD N 2B RF 2 STL 1 0 1 0 Ken Dayley
251 06/30/84   6 Sat SD N 1B RF 2 STL 8 2 0 0 Bruce Sutter
252 07/01/84   7 Sun SD D 1B RF 2 STL 1 0 1 0 Dave LaPoint
253 07/01/84   7 Sun SD D 1B RF 2 STL 3 1 0 0 Dave LaPoint
254 07/01/84   7 Sun SD D 1B RF 2 STL 7 1 1 0 Dave Von Ohlen
255 07/02/84   7 Mon SD N 1B RF 2 CHI 1 0 1 0 Rick Reuschel
256 07/02/84   7 Mon SD N 1B RF 2 CHI 7 0 3 1 George Frazier
257 07/05/84   7 Thu SD D 2B RF 2 PIT 1 0 1 1 Jose DeLeon
258 07/06/84   7 Fri SD N 1B RF 2 PIT 5 1 0 0 Rick Rhoden
259 07/06/84   7 Fri SD N 1B RF 2 PIT 6 1 0 0 Don Robinson
260 07/07/84   7 Sat SD N 1B RF 2 PIT 3 1 1 0 Larry McWilliam
261 07/07/84   7 Sat SD N 1B RF 2 PIT 8 0 0 0 Kent Tekulve
262 07/08/84   7 Sun SD D 1B RF 2 PIT 1 0 0 0 John Candelaria
263 07/08/84   7 Sun SD D 1B RF 2 PIT 9 2 1 1 Don Robinson
264 07/12/84   7 Thu STL N 1B RF 2 STL 4 1 0 0 Joaquin Andujar
265 07/12/84   7 Thu STL N 1B RF 2 STL 5 2 2 1 Joaquin Andujar
266 07/13/84   7 Fri STL N 1B RF 2 STL 1 1 0 0 Ricky Horton
267 07/13/84   7 Fri STL N 1B RF 2 STL 3 1 1 0 Ricky Horton
268 07/14/84   7 Sat STL N 1B RF 2 STL 6 0 0 0 Dave LaPoint
269 07/14/84   7 Sat STL N 2B RF 2 STL 7 1 2 1 Dave Von Ohlen
270 07/14/84   7 Sat STL N 1B RF 2 STL 9 0 1 0 Bruce Sutter
271 07/15/84   7 Sun STL D 1B RF 2 STL 7 1 1 0 Dave Rucker
272 07/16/84   7 Mon CHI D 1B RF 2 CHI 3 1 1 0 Dick Ruthven
273 07/17/84   7 Tue CHI D 1B RF 2 CHI 1 0 1 0 Steve Trout
274 07/17/84   7 Tue CHI D 1B RF 2 CHI 6 2 1 1 Steve Trout
275 07/18/84   7 Wed CHI D 1B RF 2 CHI 8 1 0 0 Rick Sutcliffe
276 07/20/84 1 7 Fri PIT N 1B RF 2 PIT 1 1 0 0 Rick Rhoden
277 07/20/84 1 7 Fri PIT N 1B RF 2 PIT 3 2 0 0 Rick Rhoden
278 07/20/84 2 7 Fri PIT N 1B RF 2 PIT 1 0 1 0 John Tudor
279 07/20/84 2 7 Fri PIT N 1B RF 2 PIT 6 2 0 0 John Tudor
280 07/20/84 2 7 Fri PIT N HR RF 2 PIT 8 2 2 3 John Tudor
281 07/21/84   7 Sat PIT N 1B RF 2 PIT 1 0 1 0 Bob Walk
282 07/21/84   7 Sat PIT N 1B RF 2 PIT 6 1 0 0 Jeff Zaske
283 07/22/84 2 7 Sun PIT D 1B RF 2 PIT 1 1 0 0 Larry McWilliam
284 07/25/84   7 Wed SD N 1B RF 2 CIN 1 0 1 1 Jay Tibbs
285 07/25/84   7 Wed SD N 1B RF 2 CIN 3 1 1 0 Jay Tibbs
286 07/25/84   7 Wed SD N 1B RF 2 CIN 8 0 0 0 John Franco
287 07/25/84   7 Wed SD N 1B RF 2 CIN 9 1 0 0 Bob Owchinko
288 07/26/84   7 Thu SD D 1B RF 2 CIN 1 0 1 0 Jeff Russell
289 07/26/84   7 Thu SD D 1B RF 2 CIN 3 0 1 1 Jeff Russell
290 07/26/84   7 Thu SD D 2B RF 2 CIN 6 2 0 0 Keefe Cato
291 07/27/84   7 Fri SD N 1B RF 2 HOU 1 1 0 0 Bob Knepper
292 07/27/84   7 Fri SD N 1B RF 2 HOU 5 1 0 0 Vern Ruhle
293 07/27/84   7 Fri SD N 1B RF 2 HOU 7 0 0 0 Dave Smith
294 07/28/84 1 7 Sat SD N 1B RF 2 HOU 3 2 0 0 Joe Niekro
295 07/29/84   7 Sun SD D 1B RF 2 HOU 1 1 0 0 Mike LaCoss
296 07/29/84   7 Sun SD D 1B RF 2 HOU 3 0 0 0 Mike LaCoss
297 07/29/84   7 Sun SD D 1B RF 2 HOU 6 0 0 0 Mike LaCoss
298 07/30/84   7 Mon SD N 1B RF 2 LA 5 0 1 1 Fernando Valenz
299 07/30/84   7 Mon SD N 1B RF 2 LA 8 0 0 0 Jerry Reuss
300 07/31/84   7 Tue SD N 1B RF 2 LA 6 0 0 0 Rick Honeycutt
301 08/01/84   8 Wed SD N 1B RF 2 LA 3 0 0 0 Alejandro Pena
302 08/03/84   8 Fri HOU N 1B RF 2 HOU 8 1 0 0 Nolan Ryan
303 08/04/84   8 Sat HOU N 1B RF 2 HOU 1 0 1 0 Mike LaCoss
304 08/04/84   8 Sat HOU N 1B RF 2 HOU 6 0 0 0 Mike LaCoss
305 08/04/84   8 Sat HOU N HR RF 2 HOU 8 0 0 1 Vern Ruhle
306 08/05/84   8 Sun HOU N 1B RF 2 HOU 5 0 0 0 Bill Dawley
307 08/05/84   8 Sun HOU N 2B RF 2 HOU 6 1 1 1 Bill Dawley
308 08/06/84   8 Mon CIN N 1B RF 2 CIN 4 1 0 0 Joe Price
309 08/07/84   8 Tue CIN N 2B RF 2 CIN 1 0 1 1 Andy McGaffigan
310 08/07/84   8 Tue CIN N 1B RF 2 CIN 9 1 1 1 John Franco
311 08/08/84   8 Wed CIN N 2B RF 2 CIN 4 0 0 0 Mario Soto
312 08/09/84   8 Thu CIN N 1B RF 2 CIN 3 2 1 0 Jeff Russell
313 08/10/84 1 8 Fri ATL N 1B RF 2 ATL 1 1 0 0 Steve Bedrosian
314 08/10/84 1 8 Fri ATL N 2B RF 2 ATL 7 2 0 0 Steve Bedrosian
315 08/11/84   8 Sat ATL N 1B RF 2 ATL 6 0 1 0 Ricky Mahler
316 08/14/84   8 Tue SD N 1B RF 2 PHI 2 2 1 1 Jerry Koosman
317 08/15/84   8 Wed SD N 3B RF 2 PHI 9 0 0 0 Al Hollland
318 08/17/84   8 Fri SD N 1B RF 2 MTL 6 0 1 1 Steve Rogers
319 08/17/84   8 Fri SD N 1B RF 2 MTL 8 0 0 0 Steve Rogers
320 08/19/84   8 Sun SD D 1B RF 2 MTL 6 0 0 0 Joe Hesketh
321 08/20/84   8 Mon SD N 1B RF 2 NYM 3 2 1 0 Sid Fernandez
322 08/21/84   8 Tue SD N 1B RF 2 NYM 5 2 1 0 Ed Lynch
323 08/21/84   8 Tue SD N 1B RF 2 NYM 7 1 0 0 Brent Gaff
324 08/21/84   8 Tue SD N 1B RF 2 NYM 8 2 2 1 Brent Gaff
325 08/24/84 1 8 Fri MTL N 1B RF 2 MTL 1 1 0 0 Steve Rogers
326 08/24/84 1 8 Fri MTL N 1B RF 2 MTL 6 1 0 0 Steve Rogers
327 08/25/84   8 Sat MTL N 1B RF 2 MTL 6 1 1 1 Bill Gullickson
328 08/27/84   8 Mon PHI N 1B RF 2 PHI 1 1 0 0 Jerry Koosman
329 08/27/84   8 Mon PHI N 1B RF 2 PHI 3 2 0 0 Jerry Koosman
330 08/28/84   8 Tue PHI N 1B RF 2 PHI 1 0 1 0 Shane Rawley
331 08/28/84   8 Tue PHI N 1B RF 2 PHI 8 0 1 0 Larry Andersen
332 08/29/84   8 Wed PHI N 1B RF 2 PHI 1 0 1 0 John Denny
333 08/29/84   8 Wed PHI N 1B RF 2 PHI 9 0 0 0 Larry Andersen
334 08/31/84 2 8 Fri NYM N 1B RF 2 NYM 1 0 1 0 Bruce Berenyi
335 09/01/84 2 9 Sat NYM N 3B RF 2 NYM 1 1 0 0 Calvin Schirald
336 09/02/84   9 Sun NYM D 1B RF 2 NYM 1 1 0 0 Walt Terrell
337 09/04/84   9 Tue LA N 1B RF 2 LA 1 1 0 0 Orel Hershiser
338 09/04/84   9 Tue LA N 1B RF 2 LA 8 1 1 1 Ken Howell
339 09/05/84   9 Wed SD N 2B RF 2 CIN 3 1 2 1 Jay Tibbs
340 09/05/84   9 Wed SD N 1B RF 2 CIN 5 1 0 0 Jay Tibbs
341 09/07/84   9 Fri SD N 1B RF 2 HOU 6 0 2 0 Joe Niekro
342 09/07/84   9 Fri SD N 2B RF 2 HOU 8 1 1 1 Joe Niekro
343 09/09/84   9 Sun SD D 1B RF 2 HOU 1 0 1 0 Mike LaCoss
344 09/11/84   9 Tue SD N 1B RF 2 LA 6 1 0 0 Fernando Valenz
345 09/12/84   9 Wed SD N 1B RF 2 LA 3 0 0 0 Burt Hooton
346 09/12/84   9 Wed SD N 1B RF 2 LA 5 1 0 0 Burt Hooton
347 09/14/84   9 Fri HOU N 1B RF 2 HOU 1 0 1 0 Mike LaCoss
348 09/15/84   9 Sat HOU D 1B RF 2 HOU 5 2 1 1 Mike Scott
349 09/15/84   9 Sat HOU D 1B RF 2 HOU 8 0 0 0 Bill Dawley
350 09/17/84   9 Mon CIN N 1B RF 2 CIN 1 1 0 0 Tom Browning
351 09/17/84   9 Mon CIN N 1B RF 2 CIN 3 2 0 0 Tom Browning
352 09/17/84   9 Mon CIN N 1B RF 2 CIN 5 2 1 1 Tom Browning
353 09/18/84   9 Tue CIN D 1B RF 2 CIN 7 1 0 0 Carl Willis
354 09/19/84   9 Wed SD N 1B RF 2 SF 1 1 0 0 Jeff Robinson
355 09/19/84   9 Wed SD N 1B RF 2 SF 2 2 2 1 Jeff Robinson
356 09/20/84   9 Thu SD N 1B RF 2 SF 7 1 0 0 Randy Lerch
357 09/23/84   9 Sun SD D 1B PH 9 ATL 8 2 0 0 Craig McMurtry
358 09/24/84 1 9 Mon SF N 1B RF 2 SF 4 2 2 0 Jeff Robinson
359 09/24/84 1 9 Mon SF N 1B RF 2 SF 6 0 2 1 Randy Lerch
360 09/26/84   9 Wed SF N 1B RF 2 SF 1 0 1 0 Bill Laskey
361 09/28/84   9 Fri ATL N 1B RF 2 ATL 6 0 1 1 Craig McMurtry
362 09/29/84   9 Sat ATL D 1B RF 2 ATL 2 2 2 2 Ricky Mahler
363 04/09/85   4 Tue SF D 1B RF 3 SF 9 0 1 0 Mark Davis
364 04/10/85   4 Wed SF D 1B RF 3 SF 3 2 1 0 Dave LaPoint
365 04/12/85   4 Fri ATL N 2B RF 2 ATL 3 0 0 0 Rick Camp
366 04/15/85   4 Mon SD N 3B RF 2 SF 4 0 0 0 Atlee Hammaker
367 04/15/85   4 Mon SD N 1B RF 2 SF 5 1 0 0 Atlee Hammaker
368 04/16/85   4 Tue SD N 1B RF 2 SF 1 0 1 0 Dave LaPoint
369 04/16/85   4 Tue SD N 1B RF 2 SF 5 1 1 0 Dave LaPoint
370 04/18/85   4 Thu SD D 1B RF 2 LA 1 1 0 0 Fernando Valenz
371 04/19/85   4 Fri SD N 1B RF 2 LA 2 1 1 1 Jerry Reuss
372 04/19/85   4 Fri SD N 2B RF 2 LA 5 0 0 0 Robert Castillo
373 04/20/85   4 Sat SD N 2B RF 2 LA 3 1 0 0 Tom Brennan
374 04/20/85   4 Sat SD N 2B RF 2 LA 7 1 0 0 Tom Niedenfuer
375 04/21/85   4 Sun SD D 2B RF 2 LA 7 0 0 0 Orel Hershiser
376 04/22/85   4 Mon SD N 1B RF 2 ATL 1 1 0 0 Steve Bedrosian
377 04/22/85   4 Mon SD N 1B RF 2 ATL 6 0 0 0 Steve Bedrosian
378 04/22/85   4 Mon SD N 1B RF 2 ATL 7 2 2 1 Zane Smith
379 04/23/85   4 Tue SD N 3B RF 2 ATL 6 0 0 0 Ricky Mahler
380 04/24/85   4 Wed SD N 1B RF 2 ATL 3 1 0 0 Pascual Perez
381 04/24/85   4 Wed SD N 1B RF 2 ATL 5 2 0 0 Pascual Perez
382 04/26/85   4 Fri LA N 1B RF 2 LA 4 1 0 0 Orel Hershiser
383 04/27/85   4 Sat LA N 1B RF 2 LA 3 1 1 0 Tom Brennan
384 04/28/85   4 Sun LA D HR RF 2 LA 9 1 0 1 Fernando Valenz
385 05/04/85   5 Sat CHI D 2B RF 2 CHI 3 1 0 0 Scott Sanderson
386 05/04/85   5 Sat CHI D 2B RF 2 CHI 6 2 1 0 Lary Sorensen
387 05/04/85   5 Sat CHI D 1B RF 2 CHI 8 1 1 1 Lee Smith
388 05/05/85   5 Sun CHI D 2B RF 2 CHI 3 1 0 0 Steve Trout
389 05/05/85   5 Sun CHI D 1B RF 2 CHI 5 0 1 0 Steve Trout
390 05/08/85   5 Wed SD N 3B RF 2 PIT 6 2 1 1 Cecilio Guante
391 05/08/85   5 Wed SD N 1B RF 2 PIT 8 1 1 1 Rod Scurry
392 05/09/85   5 Thu SD D 2B RF 2 PIT 3 2 0 0 Mike Bielecki
393 05/09/85   5 Thu SD D 1B RF 2 PIT 7 2 1 0 Mike Bielecki
394 05/10/85   5 Fri SD N 1B RF 2 CHI 1 1 0 0 Steve Trout
395 05/11/85   5 Sat SD N 2B RF 2 CHI 1 1 0 0 Dennis Eckersley
396 05/11/85   5 Sat SD N 1B RF 2 CHI 6 1 0 0 Dennis Eckersley
397 05/12/85   5 Sun SD D 1B RF 2 CHI 6 0 0 0 Dick Ruthven
398 05/15/85   5 Wed SD N 1B RF 2 STL 5 2 1 0 Joaquin Andujar
399 05/15/85   5 Wed SD N 2B RF 2 STL 7 0 0 0 Joaquin Andujar
400 05/17/85   5 Fri MTL N 1B RF 2 MTL 4 0 0 0 David Palmer
401 05/17/85   5 Fri MTL N 3B RF 2 MTL 6 1 0 0 David Palmer
402 05/18/85   5 Sat MTL D 2B RF 2 MTL 9 2 1 1 Bert Roberge
403 05/19/85   5 Sun MTL D 1B RF 2 MTL 3 0 1 0 Steve Rogers
404 05/19/85   5 Sun MTL D 1B RF 2 MTL 5 0 0 0 Steve Rogers
405 05/19/85   5 Sun MTL D 1B RF 2 MTL 9 2 1 0 Tim Burke
406 05/22/85   5 Wed NYM N 1B RF 2 NYM 6 1 0 0 Ron Darling
407 05/22/85   5 Wed NYM N 1B RF 2 NYM 10 0 0 0 Jesse Orosco
408 05/25/85   5 Sat PHI N 2B RF 3 PHI 5 2 0 0 Charles Hudson
409 05/26/85   5 Sun PHI D 1B RF 2 PHI 4 1 0 0 Steve Carlton
410 05/26/85   5 Sun PHI D 1B RF 2 PHI 5 1 1 0 Steve Carlton
411 05/28/85   5 Tue SD N 1B RF 2 MTL 3 0 0 0 Bryn Smith
412 05/28/85   5 Tue SD N 1B RF 2 MTL 5 2 0 0 Bryn Smith
413 05/29/85   5 Wed SD N 1B RF 2 MTL 1 1 0 0 Joe Hesketh
414 06/01/85   6 Sat SD N 1B RF 2 NYM 1 0 1 0 Ron Darling
415 06/01/85   6 Sat SD N 1B RF 2 NYM 3 0 1 0 Ron Darling
416 06/01/85   6 Sat SD N 1B RF 2 NYM 5 0 0 0 Ron Darling
417 06/02/85   6 Sun SD D HR RF 2 NYM 1 0 1 2 Calvin Schirald
418 06/02/85   6 Sun SD D 1B RF 2 NYM 6 0 0 0 Calvin Schirald
419 06/03/85   6 Mon SD N 1B RF 2 PHI 3 2 1 0 Kevin Gross
420 06/03/85   6 Mon SD N 2B RF 2 PHI 8 1 0 0 Kevin Gross
421 06/04/85   6 Tue SD N 1B RF 2 PHI 1 0 1 0 John Denny
422 06/04/85   6 Tue SD N 1B RF 2 PHI 3 0 1 0 John Denny
423 06/04/85   6 Tue SD N 1B RF 2 PHI 9 1 0 0 Kent Tekulve
424 06/05/85   6 Wed SD N 1B RF 2 PHI 1 0 1 0 Charles Hudson
425 06/07/85 2 6 Fri CIN N 1B RF 2 CIN 1 1 0 0 Jay Tibbs
426 06/07/85 2 6 Fri CIN N 1B RF 2 CIN 5 2 1 0 Jay Tibbs
427 06/07/85 2 6 Fri CIN N HR RF 2 CIN 11 1 0 1 Ted Power
428 06/08/85   6 Sat CIN D 1B RF 2 CIN 5 1 2 0 Joe Price
429 06/08/85   6 Sat CIN D 2B RF 2 CIN 7 2 1 1 Tom Hume
430 06/09/85   6 Sun CIN D 1B RF 2 CIN 1 1 0 0 Mario Soto
431 06/10/85   6 Mon HOU N 1B RF 2 HOU 3 0 3 2 Bob Knepper
432 06/10/85   6 Mon HOU N 1B RF 2 HOU 4 2 0 0 Julio Solano
433 06/10/85   6 Mon HOU N 1B RF 2 HOU 6 2 1 1 Mark Ross
434 06/12/85   6 Wed HOU N 1B RF 2 HOU 3 0 1 0 Nolan Ryan
435 06/12/85   6 Wed HOU N 1B RF 2 HOU 8 2 0 0 Nolan Ryan
436 06/13/85   6 Thu SF N 2B RF 2 SF 3 1 1 0 Bill Laskey
437 06/14/85   6 Fri SF N 1B RF 2 SF 1 0 1 0 Dave LaPoint
438 06/14/85   6 Fri SF N 1B RF 2 SF 10 1 0 0 Mark Davis
439 06/15/85   6 Sat SF D 1B RF 2 SF 4 0 0 0 Jim Gott
440 06/15/85   6 Sat SF D 1B RF 2 SF 5 2 2 1 Jim Gott
441 06/16/85 1 6 Sun SF D 1B RF 2 SF 1 0 1 0 Mike Krukow
442 06/16/85 1 6 Sun SF D HR RF 2 SF 3 1 1 2 Mike Krukow
443 06/16/85 1 6 Sun SF D 1B RF 2 SF 5 0 0 0 Mike Krukow
444 06/18/85   6 Tue LA N 1B RF 2 LA 4 2 2 1 Bob Welch
445 06/18/85   6 Tue LA N 1B RF 2 LA 7 0 0 0 Carlos Diaz
446 06/20/85   6 Thu SD D 1B RF 2 SF 8 0 2 1 Mark Davis
447 06/21/85   6 Fri SD N 1B RF 2 SF 1 1 0 0 Vida Blue
448 06/21/85   6 Fri SD N 1B RF 2 SF 3 0 1 0 Vida Blue
449 06/21/85   6 Fri SD N 2B RF 2 SF 7 1 0 0 Greg Minton
450 06/22/85   6 Sat SD D 1B RF 2 SF 4 0 0 0 Bill Laskey
451 06/25/85   6 Tue SD N 2B RF 2 LA 1 1 0 0 Bob Welch
452 06/25/85   6 Tue SD N 1B RF 2 LA 6 2 0 0 Bob Welch
453 06/27/85   6 Thu SD D 1B RF 2 LA 3 0 1 0 Fernando Valenz
454 06/29/85   6 Sat SD N 1B RF 2 CIN 6 1 1 1 Mario Soto
455 07/01/85   7 Mon SD N 1B RF 2 HOU 1 1 0 0 Nolan Ryan
456 07/02/85   7 Tue SD N 1B RF 2 HOU 3 0 0 0 Joe Niekro
457 07/04/85   7 Thu PIT D 2B RF 2 PIT 6 1 0 0 Rick Rhoden
458 07/04/85   7 Thu PIT D 1B RF 2 PIT 8 2 2 1 Jim Winn
459 07/05/85   7 Fri PIT N 1B RF 2 PIT 7 1 0 0 John Candelaria
460 07/05/85   7 Fri PIT N 1B RF 2 PIT 11 0 0 0 Cecilio Guante
461 07/05/85   7 Fri PIT N 1B RF 2 PIT 12 2 3 2 Rick Reuschel
462 07/06/85   7 Sat PIT N 2B RF 2 PIT 3 0 0 0 Larry McWilliam
463 07/08/85   7 Mon CHI D 1B RF 2 CHI 5 0 0 0 Warren Brusstar
464 07/08/85   7 Mon CHI D 1B RF 2 CHI 8 1 0 0 Ron Meridith
465 07/10/85   7 Wed CHI D 1B RF 2 CHI 8 2 0 0 Lee Smith
466 07/19/85   7 Fri SD N 1B RF 2 PIT 5 2 1 0 Jim Winn
467 07/20/85   7 Sat SD D 1B RF 2 PIT 7 2 1 1 Al Holland
468 07/21/85   7 Sun SD D 1B RF 2 PIT 1 1 0 0 Lee Tunnell
469 07/21/85   7 Sun SD D 1B RF 2 PIT 6 2 0 0 Lee Tunnell
470 07/23/85   7 Tue SD N 1B RF 2 CHI 3 1 0 0 Rick Sutcliffe
471 07/23/85   7 Tue SD N 2B RF 2 CHI 6 1 0 0 Rick Sutcliffe
472 07/23/85   7 Tue SD N 1B RF 2 CHI 8 1 0 0 Ron Meridith
473 07/24/85   7 Wed SD N 2B RF 2 CHI 4 1 0 0 Dennis Eckersley
474 07/25/85   7 Thu SD D 1B RF 2 STL 5 1 3 1 Kurt Kepshire
475 07/27/85   7 Sat SD D 1B RF 2 STL 8 0 0 0 Ricky Horton
476 07/28/85   7 Sun SD D 1B RF 2 STL 1 1 0 0 John Tudor
477 07/28/85   7 Sun SD D 1B RF 2 STL 4 1 0 0 John Tudor
478 07/30/85   7 Tue ATL N 1B RF 2 ATL 1 1 0 0 Ricky Mahler
479 07/30/85   7 Tue ATL N 2B RF 2 ATL 5 1 0 0 Ricky Mahler
480 07/30/85   7 Tue ATL N 1B RF 2 ATL 12 0 1 0 Rick Camp
481 07/31/85   7 Wed ATL N 1B RF 2 ATL 3 2 1 0 Joe Johnson
482 07/31/85   7 Wed ATL N 1B RF 2 ATL 5 2 1 0 Joe Johnson
483 07/31/85   7 Wed ATL N 1B RF 2 ATL 9 1 1 0 Bruce Sutter
484 08/01/85   8 Thu ATL N 1B RF 3 ATL 6 1 0 0 Zane Smith
485 08/03/85   8 Sat HOU N 1B RF 2 HOU 1 0 1 0 Nolan Ryan
486 08/03/85   8 Sat HOU N 1B RF 2 HOU 2 2 1 0 Nolan Ryan
487 08/04/85   8 Sun HOU N 1B RF 2 HOU 9 0 1 0 Dave Smith
488 08/05/85   8 Mon CIN N 1B RF 3 CIN 2 2 1 1 Andy McGaffigan
489 08/05/85   8 Mon CIN N 1B RF 3 CIN 6 2 0 0 Ron Robinson
490 08/08/85   8 Thu SD N 1B RF 3 HOU 9 0 0 0 Dave Smith
491 08/09/85 1 8 Fri SD N 1B RF 3 HOU 3 2 1 1 Nolan Ryan
492 08/09/85 2 8 Fri SD N 1B RF 3 HOU 1 2 0 0 Mike Scott
493 08/11/85   8 Sun SD D 1B RF 3 HOU 4 0 0 0 Bob Knepper
494 08/13/85   8 Tue SD N 1B RF 3 CIN 5 2 0 0 Tom Browning
495 08/14/85   8 Wed SD N 1B RF 2 CIN 8 0 0 0 Ron Robinson
496 08/15/85   8 Thu SD D 1B RF 2 CIN 9 0 1 0 Andy McGaffigan
497 08/15/85   8 Thu SD D 1B RF 2 CIN 10 0 1 0 John Franco
498 08/16/85   8 Fri SD N 2B RF 2 ATL 3 0 0 0 Ricky Mahler
499 08/16/85   8 Fri SD N 1B RF 2 ATL 7 1 0 0 Rick Camp
500 08/18/85 2 8 Sun SD D 1B RF 2 ATL 3 1 0 0 Craig McMurtry
501 08/18/85 2 8 Sun SD D 1B RF 2 ATL 8 0 0 0 Gene Garber
502 08/20/85   8 Tue MTL N 1B RF 2 MTL 4 1 0 0 Bill Gullickson
503 08/20/85   8 Tue MTL N 2B RF 2 MTL 8 1 0 0 Gary Lucas
504 08/21/85   8 Wed MTL N 1B RF 2 MTL 1 0 1 0 Bill Laskey
505 08/21/85   8 Wed MTL N 1B RF 2 MTL 6 0 0 0 Gary Lucas
506 08/21/85   8 Wed MTL N 1B RF 2 MTL 8 1 0 0 Randy St. Clair
507 08/23/85 1 8 Fri NYM N 1B RF 2 NYM 9 0 0 0 Doug Sisk
508 08/24/85   8 Sat NYM N 1B RF 2 NYM 1 1 0 0 Ron Darling
509 08/24/85   8 Sat NYM N 1B RF 2 NYM 8 0 1 0 Ron Darling
510 08/25/85   8 Sun NYM D 1B RF 2 NYM 3 1 1 1 Dwight Gooden
511 08/26/85   8 Mon PHI N 1B RF 2 PHI 9 0 0 0 Don Carman
512 08/27/85   8 Tue PHI N 1B RF 2 PHI 1 0 1 0 John Denny
513 08/27/85   8 Tue PHI N 2B RF 2 PHI 5 1 0 0 John Denny
514 08/29/85   8 Thu SD D 1B RF 2 MTL 3 2 0 0 Bryn Smith
515 08/29/85   8 Thu SD D 1B RF 2 MTL 9 2 1 0 Tim Burke
516 08/31/85   8 Sat SD N 1B RF 2 MTL 4 0 0 0 Bill Gullickson
517 08/31/85   8 Sat SD N 1B RF 2 MTL 6 0 0 0 Bill Gullickson
518 09/02/85   9 Mon SD N HR RF 2 NYM 1 1 0 1 Sid Fernandez
519 09/04/85   9 Wed SD N 1B RF 2 NYM 1 1 0 0 Ron Darling
520 09/04/85   9 Wed SD N 1B RF 2 NYM 3 1 1 1 Ron Darling
521 09/06/85   9 Fri SD N 1B RF 2 PHI 5 2 0 0 Shane Rawley
522 09/06/85   9 Fri SD N 1B RF 2 PHI 10 0 0 0 Don Carman
523 09/07/85   9 Sat SD D 1B RF 2 PHI 5 2 0 0 John Denny
524 09/08/85   9 Sun SD D 1B RF 3 PHI 5 1 1 0 Steve Carlton
525 09/09/85   9 Mon CIN N 1B RF 2 CIN 1 1 0 0 Andy McGaffigan
526 09/10/85   9 Tue CIN N 1B RF 2 CIN 1 0 1 0 Ron Robinson
527 09/10/85   9 Tue CIN N 1B RF 2 CIN 9 2 1 0 Ted Power
528 09/11/85   9 Wed CIN N 1B RF 3 CIN 7 0 0 0 Tom Browning
529 09/12/85   9 Thu CIN N 1B RF 2 CIN 5 2 1 1 Jay Tibbs
530 09/13/85   9 Fri HOU N 2B RF 3 HOU 1 2 0 0 Mike Scott
531 09/13/85   9 Fri HOU N 1B RF 3 HOU 3 1 2 1 Mike Scott
532 09/14/85   9 Sat HOU N 1B RF 3 HOU 3 2 1 0 Bob Knepper
533 09/14/85   9 Sat HOU N 1B RF 3 HOU 8 1 0 0 Bill Dawley
534 09/16/85   9 Mon SD N 1B RF 3 LA 6 1 1 0 Jerry Reuss
535 09/17/85   9 Tue SD N 1B RF 3 LA 9 1 1 0 Orel Hershiser
536 09/18/85   9 Wed SF N 1B RF 3 SF 6 2 1 0 Greg Minton
537 09/20/85   9 Fri SD N 1B RF 3 ATL 3 1 2 1 Steve Bedrosian
538 09/20/85   9 Fri SD N 1B RF 3 ATL 4 1 3 2 Steve Shields
539 09/20/85   9 Fri SD N 1B RF 3 ATL 5 0 1 0 Steve Shields
540 09/23/85   9 Mon SD N 1B RF 3 SF 1 1 1 0 Atlee Hammaker
541 09/24/85   9 Tue SD N 2B RF 3 SF 1 2 0 0 Dave LaPoint
542 09/25/85   9 Wed SD N 1B RF 2 SF 3 1 1 0 Roger Mason
543 09/25/85   9 Wed SD N 3B RF 2 SF 5 0 1 1 Roger Mason
544 09/27/85   9 Fri ATL N 1B RF 2 ATL 1 1 0 0 Joe Johnson
545 09/27/85   9 Fri ATL N 1B RF 2 ATL 2 2 1 1 Joe Johnson
546 09/27/85   9 Fri ATL N 1B RF 2 ATL 6 0 0 0 Dave Schuler
547 09/28/85   9 Sat ATL N 1B RF 3 ATL 4 2 0 0 Zane Smith
548 09/28/85   9 Sat ATL N 1B RF 3 ATL 6 2 1 0 Zane Smith
549 09/29/85   9 Sun ATL D 1B RF 2 ATL 8 1 0 0 Ricky Mahler
550 09/30/85   9 Mon LA N 2B RF 3 LA 4 0 0 0 Fernando Valenz
551 09/30/85   9 Mon LA N 1B RF 3 LA 8 1 3 2 Fernando Valenz
552 10/02/85   10 Wed SD N 1B RF 2 CIN 3 1 0 0 Tom Browning
553 10/03/85   10 Thu SD D HR RF 2 CIN 1 0 1 2 Jay Tibbs
554 10/03/85   10 Thu SD D 1B RF 2 CIN 5 1 1 0 Jay Tibbs
555 10/03/85   10 Thu SD D 1B RF 2 CIN 7 0 1 0 Bob Buchanan
556 10/04/85   10 Fri SD N 1B RF 2 HOU 6 2 1 1 Bob Knepper
557 10/05/85   10 Sat SD D 1B RF 2 HOU 1 0 1 0 Nolan Ryan
558 10/06/85   10 Sun SD D 1B RF 2 HOU 1 1 0 0 Mike Scott
559 10/06/85   10 Sun SD D 1B RF 2 HOU 9 1 0 0 Dave Smith

Click to Select an Era